Weather History for PANN - February, 2014

Change the Weather History Date:

Monday, February 17, 2014

  Actual Average Record
Temperature  
Mean Temperature 6 °F -  
Max Temperature 37 °F 5 °F 53 °F (2015)
Min Temperature -24 °F -14 °F -24 °F (2014)
Degree Days  
Heating Degree Days 58    
Moisture  
Dew Point -12 °F    
Average Humidity 70    
Maximum Humidity 100    
Minimum Humidity 57    
Precipitation  
Precipitation 0.28 in - - ()
Sea Level Pressure  
Sea Level Pressure 29.35 in    
Wind  
Wind Speed 3 mph (NW)    
Max Wind Speed 9 mph    
Max Gust Speed -    
Visibility 10 miles    
Events Snow    
Averages and records for this station are not official NWS values.
T = Trace of Precipitation, MM = Missing Value Source: NWS Daily Summary

Daily Weather History Graph

Daily Weather History Graph

Search for Another Location

Airport or City:

Trip Planner

Search our weather history database for the weather conditions in past years. The results will help you decide how hot, cold, wet, or windy it might be!

Date:

Astronomy

Feb. 17, 2014 Rise Set
Actual Time 8:45 AM AKST 5:35 PM AKST
Civil Twilight 7:54 AM AKST 6:27 PM AKST
Nautical Twilight 6:58 AM AKST 7:24 PM AKST
Astronomical Twilight 6:02 AM AKST 8:20 PM AKST
Moon 10:03 PM AKST (2/17) 8:39 AM AKST (2/17)
Length of Visible Light 10h 32m
Length of Day
8h 49m
Waning Gibbous, 92% of the Moon is Illuminated
Feb 17
Waning Gibbous
Feb 22
Last Quarter
Feb 28
New
Mar 8
First Quarter
Mar 16
Full

Hourly Weather History & Observations

Time (AKST) Temp. Windchill Dew Point Humidity Pressure Visibility Wind Dir Wind Speed Gust Speed Precip Events Conditions
12:53 AM -20.0 °F -30.7 °F -25.1 °F 78% 29.29 in 10.0 mi SSE 3.5 mph - N/A   Clear
1:53 AM -18.9 °F - -25.1 °F 74% 29.29 in 10.0 mi Calm Calm - N/A   Clear
2:53 AM -18.0 °F -28.5 °F -25.1 °F 70% 29.29 in 10.0 mi South 3.5 mph - N/A   Clear
3:53 AM -20.9 °F - -27.9 °F 70% 29.29 in 10.0 mi Calm Calm - N/A   Clear
4:53 AM -20.9 °F - -27.0 °F 73% 29.30 in 10.0 mi Calm Calm - N/A   Partly Cloudy
5:53 AM -20.9 °F - -27.9 °F 70% 29.30 in 10.0 mi Calm Calm - N/A   Clear
6:53 AM -22.0 °F - -29.0 °F 70% 29.30 in 10.0 mi Calm Calm - N/A   Clear
7:53 AM -20.9 °F - -29.0 °F 66% 29.31 in 10.0 mi Calm Calm - N/A   Clear
8:53 AM -24.0 °F - -29.9 °F 74% 29.31 in 10.0 mi Calm Calm - N/A   Clear
9:53 AM -18.9 °F -29.5 °F -24.0 °F 78% 29.32 in 10.0 mi SSW 3.5 mph - N/A   Clear
10:53 AM -13.0 °F - -17.0 °F 82% 29.33 in 10.0 mi Calm Calm - N/A   Clear
11:53 AM -5.1 °F -17.6 °F -15.0 °F 62% 29.34 in 10.0 mi NNW 5.8 mph - N/A   Clear
12:53 PM -2.9 °F -16.5 °F -14.1 °F 59% 29.33 in 10.0 mi NNW 6.9 mph - N/A   Clear
1:53 PM -2.0 °F -17.7 °F -14.1 °F 57% 29.34 in 10.0 mi NNW 9.2 mph - N/A   Clear
2:53 PM -0.9 °F -12.7 °F -13.0 °F 57% 29.35 in 10.0 mi NNW 5.8 mph - N/A   Clear
3:53 PM -2.0 °F -16.6 °F -14.1 °F 57% 29.35 in 10.0 mi NW 8.1 mph - N/A   Clear
4:53 PM -2.9 °F -16.5 °F -14.1 °F 59% 29.36 in 10.0 mi NW 6.9 mph - N/A   Clear
5:53 PM -5.1 °F -17.6 °F -15.0 °F 62% 29.37 in 10.0 mi NNW 5.8 mph - N/A   Clear
6:53 PM -9.0 °F - -16.1 °F 71% 29.39 in 10.0 mi Calm Calm - N/A   Clear
7:53 PM -7.1 °F - -15.0 °F 68% 29.40 in 10.0 mi Calm Calm - N/A   Clear
8:53 PM -7.1 °F - -15.0 °F 68% 29.42 in 9.0 mi Calm Calm - N/A   Overcast
9:53 PM -5.1 °F - -13.0 °F 69% 29.43 in 10.0 mi Calm Calm - N/A   Overcast
10:53 PM -4.0 °F -19.0 °F -13.0 °F 65% 29.42 in 10.0 mi NNW 8.1 mph - N/A   Overcast
11:53 PM -2.9 °F -15.0 °F -11.9 °F 65% 29.44 in 10.0 mi NNW 5.8 mph - N/A   Overcast